STARLINK-4718, 53773

Orbit data source: Space-Track

STARLINK-4718, 53773 is a payload satellite owned by SpaceX/Seattle (US) in LEO that was launched on Sun, 11 Sep 2022 UTC via an FALCON 9 launch vehicle from the Air Force Eastern Test Range (AFETR). Payload-class satellites include a variety of spacecraft equipped with specific instruments for various scientific and technological missions. These include communications satellites like Starlink; space stations such as the ISS; scientific satellites like the Hubble; Earth observation satellites from companies like Planet Labs, Umbra, and HawkEye 360; GPS; miniature CubeSats for education and research; and military/defense satellites.

Loading next visibility...
Identifier
53773, 2022-111A
Orbit
LEO
Country
Flag of USUS
Related business
Manufacturer
SpaceX/Seattle
Mission
Operational Commercial Communications
Bus & Motor
STARLINK, Unknown motor
Mass
305 kg wet, ~290 kg dry
Launch date (UTC)
2022-09-11 (4 years ago)
Launch vehicle
FALCON 9
Launch site
Air Force Eastern Test Range (AFETR)
Object type
Payload
Rocket body
Debris
Shape & HBR
Box + 1 Pan, 10.1 m
Radar Cross Section
13.562 m², Large (>1 m²)

Expand to show TLE details & history
Last TLE update: 18 hours ago

TLE from 18 hours ago
0 STARLINK-4718
1 53773U 22111A   26264.93018195  .00000379  00000-0  23986-4 0  9999
2 53773  53.1599 111.8297 0001174  90.9074 269.2062 15.31702764223628
Epoch: 2026-09-21T22:19Z
TLE epoch observation values (Epoch: 2026-09-21T22:19:27.720Z)
Latitude
-0.00002°
Longitude
136.16124°
Altitude
471.643 km
Speed
7.631 km/s
True Right ascension
07h 27m 19s
True Declination
0° 00' 00"
Sunlit
Object was in daylight at epoch
Visualization orbit readout
Latitude
Unknown
Longitude
Unknown
Altitude
Unknown
Speed
Unknown
Apparent Right ascension
Unknown
Apparent Declination
Unknown
Sunlit
N/A
Visualization observer readout
Local Sidereal Time
09:03:43
Azimuth
Unknown
Elevation
Unknown
Doppler factor
Unknown
Orbital elements
Apogee altitude
471.792 km
Perigee altitude
470.184 km
Semi-major axis
6,849.125 km
Eccentricity
0.00012
Inclination
53.1599°
RAAN
111.8297°
Arg. of periapsis
90.9074°
True anomaly
269.19275°
Mean anomaly
269.2062°
Eccentric anomaly
269.19947°
Mean motion
3.82905 °/min
Orbital period
94.02 mins
BSTAR
0.000023986
Loading maneuver chart data...
Computing Atmospheric mass density...

Documentation

Showing up to 5 results
|